Time,TemperatureF,DewpointF,PressureIn,WindDirection,WindDirectionDegrees,WindSpeedMPH,WindSpeedGustMPH,Humidity,HourlyPrecipIn,Conditions,Clouds,dailyrainin,SoftwareType,DateUTC
2013-05-26 00:02:00,70.0,64.0,30.00,SSE,150,8.0,-999.0,82,-99.99,,,-99.99,,2013-05-26 05:02:00,
2013-05-26 00:12:00,70.0,64.0,30.00,SSE,150,8.0,-999.0,82,-99.99,,,-99.99,,2013-05-26 05:12:00,
2013-05-26 00:22:00,70.0,64.0,29.99,SSE,150,8.0,-999.0,82,-99.99,,,-99.99,,2013-05-26 05:22:00,
2013-05-26 00:32:00,70.0,64.0,29.99,SSE,150,9.0,-999.0,82,-99.99,,,-99.99,,2013-05-26 05:32:00,
2013-05-26 00:42:00,70.0,64.0,29.98,SSE,150,10.0,-999.0,82,-99.99,,,-99.99,,2013-05-26 05:42:00,
2013-05-26 00:52:00,70.0,64.0,29.97,SE,140,10.0,-999.0,82,-99.99,,,-99.99,,2013-05-26 05:52:00,
2013-05-26 01:01:00,70.0,64.0,29.97,SE,140,10.0,-999.0,82,-99.99,,,-99.99,,2013-05-26 06:01:00,
2013-05-26 01:12:00,70.0,64.0,29.98,SSE,150,9.0,-999.0,82,-99.99,,,-99.99,,2013-05-26 06:12:00,
2013-05-26 01:21:00,68.0,64.0,30.00,SSE,160,8.0,-999.0,88,-99.99,,,-99.99,,2013-05-26 06:21:00,
2013-05-26 01:32:00,68.0,64.0,30.01,South,170,9.0,-999.0,88,-99.99,,,-99.99,,2013-05-26 06:32:00,
2013-05-26 01:42:00,68.0,64.0,30.00,SSE,150,8.0,-999.0,88,-99.99,,,-99.99,,2013-05-26 06:42:00,
2013-05-26 01:52:00,68.0,64.0,30.00,SSE,160,6.0,-999.0,88,-99.99,,,-99.99,,2013-05-26 06:52:00,
2013-05-26 02:01:00,68.0,64.0,30.00,SSE,160,6.0,-999.0,88,-99.99,,,-99.99,,2013-05-26 07:01:00,
2013-05-26 02:11:00,66.0,63.0,30.00,SSE,150,6.0,-999.0,88,-99.99,,,-99.99,,2013-05-26 07:11:00,
2013-05-26 02:21:00,66.0,63.0,30.00,SSE,150,5.0,-999.0,88,-99.99,,,-99.99,,2013-05-26 07:21:00,
2013-05-26 02:31:00,66.0,63.0,30.00,SSE,160,5.0,-999.0,88,-99.99,,,-99.99,,2013-05-26 07:31:00,
2013-05-26 02:42:00,66.0,63.0,30.00,South,170,5.0,-999.0,88,-99.99,,,-99.99,,2013-05-26 07:42:00,
2013-05-26 02:52:00,66.0,63.0,30.00,South,180,8.0,-999.0,88,-99.99,,,-99.99,,2013-05-26 07:52:00,
2013-05-26 03:01:00,66.0,63.0,30.00,South,180,8.0,-999.0,88,-99.99,,,-99.99,,2013-05-26 08:01:00,
2013-05-26 03:11:00,66.0,63.0,29.99,South,170,9.0,-999.0,88,-99.99,,,-99.99,,2013-05-26 08:11:00,
2013-05-26 03:21:00,66.0,63.0,29.98,South,180,9.0,-999.0,88,-99.99,,,-99.99,,2013-05-26 08:21:00,
2013-05-26 03:32:00,66.0,63.0,29.97,South,170,8.0,-999.0,88,-99.99,,,-99.99,,2013-05-26 08:32:00,
2013-05-26 03:42:00,66.0,63.0,29.97,SSE,160,9.0,-999.0,88,-99.99,,,-99.99,,2013-05-26 08:42:00,
2013-05-26 03:53:00,66.0,63.0,29.95,SSE,160,9.0,-999.0,88,-99.99,,,-99.99,,2013-05-26 08:53:00,
2013-05-26 04:01:00,66.0,63.0,29.95,SSE,160,9.0,-999.0,88,-99.99,,,-99.99,,2013-05-26 09:01:00,
2013-05-26 04:11:00,66.0,63.0,29.94,SSE,160,12.0,-999.0,88,-99.99,,,-99.99,,2013-05-26 09:11:00,
2013-05-26 04:21:00,66.0,63.0,29.94,SSE,160,10.0,17.0,88,-99.99,,,-99.99,,2013-05-26 09:21:00,
2013-05-26 04:33:00,66.0,63.0,29.93,SSE,160,9.0,16.0,88,-99.99,,,-99.99,,2013-05-26 09:33:00,
2013-05-26 04:42:00,66.0,63.0,29.93,SSE,160,9.0,-999.0,88,-99.99,,,-99.99,,2013-05-26 09:42:00,
2013-05-26 04:52:00,66.0,63.0,29.92,SSE,150,12.0,18.0,88,-99.99,,,-99.99,,2013-05-26 09:52:00,
2013-05-26 05:02:00,66.0,63.0,29.92,SSE,150,12.0,18.0,88,-99.99,,,-99.99,,2013-05-26 10:02:00,
2013-05-26 05:12:00,66.0,63.0,29.92,SSE,160,12.0,20.0,88,-99.99,,,-99.99,,2013-05-26 10:12:00,
2013-05-26 05:23:00,66.0,63.0,29.92,South,170,14.0,18.0,88,-99.99,,,-99.99,,2013-05-26 10:23:00,
2013-05-26 05:32:00,66.0,63.0,29.92,South,170,13.0,-999.0,88,-99.99,,,-99.99,,2013-05-26 10:32:00,
2013-05-26 05:42:00,66.0,63.0,29.92,South,170,14.0,20.0,88,-99.99,,,-99.99,,2013-05-26 10:42:00,
2013-05-26 05:52:00,66.0,63.0,29.92,South,170,15.0,-999.0,88,-99.99,,,-99.99,,2013-05-26 10:52:00,
2013-05-26 06:03:00,66.0,63.0,29.92,South,170,15.0,-999.0,88,-99.99,,,-99.99,,2013-05-26 11:03:00,
2013-05-26 06:11:00,66.0,63.0,29.92,South,180,12.0,21.0,88,-99.99,,,-99.99,,2013-05-26 11:11:00,
2013-05-26 06:22:00,66.0,63.0,29.93,South,180,13.0,18.0,88,-99.99,,,-99.99,,2013-05-26 11:22:00,
2013-05-26 06:32:00,66.0,63.0,29.93,South,190,14.0,21.0,88,-99.99,,,-99.99,,2013-05-26 11:32:00,
2013-05-26 06:42:00,66.0,63.0,29.93,South,190,14.0,23.0,88,-99.99,,,-99.99,,2013-05-26 11:42:00,
2013-05-26 06:52:00,68.0,63.0,29.94,South,190,15.0,23.0,82,-99.99,,,-99.99,,2013-05-26 11:52:00,
2013-05-26 07:02:00,68.0,63.0,29.94,South,190,15.0,23.0,82,-99.99,,,-99.99,,2013-05-26 12:02:00,
2013-05-26 07:11:00,68.0,63.0,29.94,South,180,13.0,21.0,82,-99.99,,,-99.99,,2013-05-26 12:11:00,
2013-05-26 07:21:00,68.0,63.0,29.94,South,190,13.0,18.0,82,-99.99,,,-99.99,,2013-05-26 12:21:00,
2013-05-26 07:32:00,68.0,63.0,29.94,South,180,10.0,18.0,82,-99.99,,,-99.99,,2013-05-26 12:32:00,
2013-05-26 07:42:00,68.0,63.0,29.95,South,190,9.0,-999.0,82,-99.99,,,-99.99,,2013-05-26 12:42:00,
2013-05-26 07:52:00,68.0,63.0,29.92,SSE,150,14.0,-999.0,82,-99.99,,,-99.99,,2013-05-26 12:52:00,
2013-05-26 08:02:00,68.0,63.0,29.92,SSE,150,14.0,-999.0,82,-99.99,,,-99.99,,2013-05-26 13:02:00,
2013-05-26 08:11:00,68.0,63.0,29.94,South,190,9.0,18.0,82,-99.99,,,-99.99,,2013-05-26 13:11:00,
2013-05-26 08:21:00,70.0,63.0,29.92,South,170,14.0,21.0,77,-99.99,,,-99.99,,2013-05-26 13:21:00,
2013-05-26 08:32:00,68.0,63.0,29.92,SSE,160,15.0,22.0,82,-99.99,,,-99.99,,2013-05-26 13:32:00,
2013-05-26 08:42:00,68.0,64.0,29.92,SSE,160,15.0,22.0,88,-99.99,,,-99.99,,2013-05-26 13:42:00,
2013-05-26 08:52:00,70.0,64.0,29.92,South,170,14.0,21.0,82,-99.99,,,-99.99,,2013-05-26 13:52:00,
2013-05-26 09:02:00,70.0,64.0,29.92,South,170,14.0,21.0,82,-99.99,,,-99.99,,2013-05-26 14:02:00,
2013-05-26 09:11:00,70.0,64.0,29.92,SSE,160,18.0,23.0,82,-99.99,,,-99.99,,2013-05-26 14:11:00,
2013-05-26 09:21:00,70.0,64.0,29.91,South,170,17.0,28.0,82,-99.99,,,-99.99,,2013-05-26 14:21:00,
2013-05-26 09:32:00,70.0,64.0,29.90,SSE,160,20.0,29.0,82,-99.99,,,-99.99,,2013-05-26 14:32:00,
2013-05-26 09:41:00,70.0,64.0,29.91,SSE,160,20.0,29.0,82,-99.99,,,-99.99,,2013-05-26 14:41:00,
2013-05-26 09:52:00,72.0,64.0,29.94,South,180,18.0,28.0,78,-99.99,,,-99.99,,2013-05-26 14:52:00,
2013-05-26 10:01:00,72.0,64.0,29.94,South,180,18.0,28.0,78,-99.99,,,-99.99,,2013-05-26 15:01:00,
2013-05-26 10:12:00,70.0,64.0,29.95,South,190,15.0,23.0,82,-99.99,,,-99.99,,2013-05-26 15:12:00,
2013-05-26 10:22:00,70.0,64.0,29.95,South,180,17.0,24.0,82,-99.99,,,-99.99,,2013-05-26 15:22:00,
2013-05-26 10:33:00,70.0,64.0,29.95,South,190,16.0,25.0,82,-99.99,,,-99.99,,2013-05-26 15:33:00,
2013-05-26 10:43:00,72.0,64.0,29.95,South,180,15.0,22.0,78,-99.99,,,-99.99,,2013-05-26 15:43:00,
2013-05-26 10:53:00,72.0,64.0,29.96,SSW,200,15.0,22.0,78,-99.99,,,-99.99,,2013-05-26 15:53:00,
2013-05-26 11:03:00,72.0,64.0,29.96,SSW,200,15.0,22.0,78,-99.99,,,-99.99,,2013-05-26 16:03:00,
2013-05-26 11:12:00,72.0,64.0,29.95,South,170,17.0,23.0,78,-99.99,,,-99.99,,2013-05-26 16:12:00,
2013-05-26 11:23:00,72.0,64.0,29.95,South,180,16.0,22.0,78,-99.99,,,-99.99,,2013-05-26 16:23:00,
2013-05-26 11:33:00,72.0,64.0,29.95,South,180,14.0,-999.0,78,-99.99,,,-99.99,,2013-05-26 16:33:00,
2013-05-26 11:42:00,72.0,66.0,29.95,South,180,20.0,27.0,83,-99.99,,,-99.99,,2013-05-26 16:42:00,
2013-05-26 11:52:00,73.0,66.0,29.94,South,170,18.0,22.0,78,-99.99,,,-99.99,,2013-05-26 16:52:00,
2013-05-26 12:02:00,73.0,66.0,29.94,South,170,18.0,22.0,78,-99.99,,,-99.99,,2013-05-26 17:02:00,
2013-05-26 12:11:00,73.0,66.0,29.95,South,180,16.0,23.0,78,-99.99,,,-99.99,,2013-05-26 17:11:00,
2013-05-26 12:22:00,73.0,66.0,29.95,South,180,22.0,25.0,78,-99.99,,,-99.99,,2013-05-26 17:22:00,
2013-05-26 12:32:00,73.0,66.0,29.94,South,180,15.0,21.0,78,-99.99,,,-99.99,,2013-05-26 17:32:00,
2013-05-26 12:42:00,73.0,66.0,29.94,South,180,18.0,23.0,78,-99.99,,,-99.99,,2013-05-26 17:42:00,
2013-05-26 12:52:00,73.0,66.0,29.93,SSE,160,18.0,25.0,78,-99.99,,,-99.99,,2013-05-26 17:52:00,
2013-05-26 13:01:00,73.0,66.0,29.93,SSE,160,18.0,25.0,78,-99.99,,,-99.99,,2013-05-26 18:01:00,
2013-05-26 13:12:00,75.0,66.0,29.92,SSE,160,21.0,29.0,73,-99.99,,,-99.99,,2013-05-26 18:12:00,
2013-05-26 13:21:00,75.0,66.0,29.92,SSE,160,22.0,25.0,73,-99.99,,,-99.99,,2013-05-26 18:21:00,
2013-05-26 13:32:00,-999.0,-99.9,29.92,SSE,160,16.0,24.0,-999,-99.99,,,-99.99,,2013-05-26 18:32:00,
2013-05-26 13:42:00,-999.0,-99.9,29.91,South,170,20.0,25.0,-999,-99.99,,,-99.99,,2013-05-26 18:42:00,
2013-05-26 13:52:00,-999.0,-99.9,29.91,SSE,160,21.0,25.0,-999,-99.99,,,-99.99,,2013-05-26 18:52:00,
2013-05-26 14:01:00,-999.0,-99.9,29.91,SSE,160,21.0,25.0,-999,-99.99,,,-99.99,,2013-05-26 19:01:00,
2013-05-26 14:11:00,-999.0,-99.9,29.91,SSE,150,21.0,28.0,-999,-99.99,,,-99.99,,2013-05-26 19:11:00,
2013-05-26 14:22:00,81.0,66.0,29.90,SE,140,20.0,25.0,61,-99.99,,,-99.99,,2013-05-26 19:22:00,
2013-05-26 14:32:00,81.0,68.0,29.90,SE,140,22.0,27.0,65,-99.99,,,-99.99,,2013-05-26 19:32:00,
2013-05-26 14:42:00,81.0,68.0,29.90,SE,130,21.0,27.0,65,-99.99,,,-99.99,,2013-05-26 19:42:00,
2013-05-26 14:52:00,81.0,68.0,29.89,SSE,150,21.0,27.0,65,-99.99,,,-99.99,,2013-05-26 19:52:00,
2013-05-26 15:02:00,81.0,68.0,29.89,SSE,150,21.0,27.0,65,-99.99,,,-99.99,,2013-05-26 20:02:00,
2013-05-26 15:11:00,-999.0,-99.9,29.89,SSE,150,22.0,27.0,-999,-99.99,,,-99.99,,2013-05-26 20:11:00,
2013-05-26 15:22:00,-999.0,-99.9,29.89,SSE,160,22.0,27.0,-999,-99.99,,,-99.99,,2013-05-26 20:22:00,
2013-05-26 15:32:00,-999.0,-99.9,29.89,SSE,150,20.0,27.0,-999,-99.99,,,-99.99,,2013-05-26 20:32:00,
2013-05-26 15:42:00,-999.0,-99.9,29.89,SE,140,21.0,27.0,-999,-99.99,,,-99.99,,2013-05-26 20:42:00,
2013-05-26 15:53:00,-999.0,-99.9,29.89,SSE,150,20.0,27.0,-999,-99.99,,,-99.99,,2013-05-26 20:53:00,
2013-05-26 16:02:00,-999.0,-99.9,29.89,SSE,150,20.0,27.0,-999,-99.99,,,-99.99,,2013-05-26 21:02:00,
2013-05-26 16:12:00,-999.0,-99.9,29.88,SSE,150,21.0,28.0,-999,-99.99,,,-99.99,,2013-05-26 21:12:00,
2013-05-26 16:22:00,-999.0,-99.9,29.87,SSE,160,15.0,27.0,-999,-99.99,,,-99.99,,2013-05-26 21:22:00,
2013-05-26 16:33:00,-999.0,-99.9,29.87,SSE,150,22.0,29.0,-999,-99.99,,,-99.99,,2013-05-26 21:33:00,
2013-05-26 16:43:00,-999.0,-99.9,29.87,SSE,150,17.0,29.0,-999,-99.99,,,-99.99,,2013-05-26 21:43:00,
2013-05-26 16:53:00,-999.0,-99.9,29.87,SSE,160,20.0,27.0,-999,-99.99,,,-99.99,,2013-05-26 21:53:00,
2013-05-26 17:03:00,-999.0,-99.9,29.87,SSE,160,20.0,27.0,-999,-99.99,,,-99.99,,2013-05-26 22:03:00,
2013-05-26 17:12:00,82.0,66.0,29.86,SSE,160,18.0,28.0,58,-99.99,,,-99.99,,2013-05-26 22:12:00,
2013-05-26 17:23:00,81.0,68.0,29.85,SSE,150,20.0,28.0,65,-99.99,,,-99.99,,2013-05-26 22:23:00,
2013-05-26 17:33:00,-999.0,-99.9,29.85,SSE,160,20.0,29.0,-999,-99.99,,,-99.99,,2013-05-26 22:33:00,
2013-05-26 17:42:00,-999.0,-99.9,29.85,SSE,150,22.0,29.0,-999,-99.99,,,-99.99,,2013-05-26 22:42:00,
2013-05-26 17:53:00,-999.0,-99.9,29.85,SSE,160,20.0,28.0,-999,-99.99,,,-99.99,,2013-05-26 22:53:00,
2013-05-26 18:02:00,-999.0,-99.9,29.85,SSE,160,20.0,28.0,-999,-99.99,,,-99.99,,2013-05-26 23:02:00,
2013-05-26 18:12:00,-999.0,-99.9,29.84,SSE,160,24.0,29.0,-999,-99.99,,,-99.99,,2013-05-26 23:12:00,
2013-05-26 18:22:00,-999.0,-99.9,29.84,SSE,160,21.0,25.0,-999,-99.99,,,-99.99,,2013-05-26 23:22:00,
2013-05-26 18:32:00,-999.0,-99.9,29.84,SSE,160,17.0,27.0,-999,-99.99,,,-99.99,,2013-05-26 23:32:00,
2013-05-26 18:43:00,-999.0,-99.9,29.84,SSE,160,18.0,23.0,-999,-99.99,,,-99.99,,2013-05-26 23:43:00,
2013-05-26 18:52:00,-999.0,-99.9,29.84,SSE,150,21.0,28.0,-999,-99.99,,,-99.99,,2013-05-26 23:52:00,
2013-05-26 19:02:00,-999.0,-99.9,29.84,SSE,150,21.0,28.0,-999,-99.99,,,-99.99,,2013-05-27 00:02:00,
2013-05-26 19:11:00,-999.0,-99.9,29.84,SSE,160,13.0,22.0,-999,-99.99,,,-99.99,,2013-05-27 00:11:00,
2013-05-26 19:22:00,-999.0,-99.9,29.84,South,170,16.0,-999.0,-999,-99.99,,,-99.99,,2013-05-27 00:22:00,
2013-05-26 19:32:00,-999.0,-99.9,29.84,South,170,14.0,23.0,-999,-99.99,,,-99.99,,2013-05-27 00:32:00,
2013-05-26 19:42:00,-999.0,-99.9,29.84,SSE,160,13.0,18.0,-999,-99.99,,,-99.99,,2013-05-27 00:42:00,
2013-05-26 19:52:00,-999.0,-99.9,29.84,SSE,160,12.0,-999.0,-999,-99.99,,,-99.99,,2013-05-27 00:52:00,
2013-05-26 20:01:00,-999.0,-99.9,29.84,SSE,160,12.0,-999.0,-999,-99.99,,,-99.99,,2013-05-27 01:01:00,
2013-05-26 20:11:00,-999.0,-99.9,29.84,SSE,160,12.0,-999.0,-999,-99.99,,,-99.99,,2013-05-27 01:11:00,
2013-05-26 20:22:00,-999.0,-99.9,29.84,SSE,160,12.0,21.0,-999,-99.99,,,-99.99,,2013-05-27 01:22:00,
2013-05-26 20:31:00,75.0,66.0,29.84,SSE,160,12.0,-999.0,73,-99.99,,,-99.99,,2013-05-27 01:31:00,
2013-05-26 20:42:00,75.0,66.0,29.84,SSE,150,10.0,-999.0,73,-99.99,,,-99.99,,2013-05-27 01:42:00,
2013-05-26 20:52:00,75.0,66.0,29.83,SSE,150,12.0,-999.0,73,-99.99,,,-99.99,,2013-05-27 01:52:00,
2013-05-26 21:01:00,75.0,66.0,29.83,SSE,150,12.0,-999.0,73,-99.99,,,-99.99,,2013-05-27 02:01:00,
2013-05-26 21:11:00,73.0,66.0,29.84,SSE,160,9.0,-999.0,78,-99.99,,,-99.99,,2013-05-27 02:11:00,
2013-05-26 21:21:00,73.0,66.0,29.84,SSE,150,9.0,-999.0,78,-99.99,,,-99.99,,2013-05-27 02:21:00,
2013-05-26 21:32:00,73.0,66.0,29.84,SSE,150,9.0,-999.0,78,-99.99,,,-99.99,,2013-05-27 02:32:00,
2013-05-26 21:42:00,73.0,66.0,29.84,SSE,150,9.0,-999.0,78,-99.99,,,-99.99,,2013-05-27 02:42:00,
2013-05-26 21:52:00,73.0,66.0,29.84,SSE,150,9.0,-999.0,78,-99.99,,,-99.99,,2013-05-27 02:52:00,
2013-05-26 22:02:00,73.0,66.0,29.84,SSE,150,9.0,-999.0,78,-99.99,,,-99.99,,2013-05-27 03:02:00,
2013-05-26 22:11:00,73.0,66.0,29.83,SSE,160,10.0,-999.0,78,-99.99,,,-99.99,,2013-05-27 03:11:00,
2013-05-26 22:21:00,73.0,66.0,29.83,SSE,160,9.0,-999.0,78,-99.99,,,-99.99,,2013-05-27 03:21:00,
2013-05-26 22:33:00,73.0,66.0,29.83,SSE,160,10.0,17.0,78,-99.99,,,-99.99,,2013-05-27 03:33:00,
2013-05-26 22:42:00,73.0,66.0,29.83,SSE,160,10.0,17.0,78,-99.99,,,-99.99,,2013-05-27 03:42:00,
2013-05-26 22:53:00,73.0,66.0,29.83,SE,140,10.0,-999.0,78,-99.99,,,-99.99,,2013-05-27 03:53:00,
2013-05-26 23:02:00,73.0,66.0,29.83,SE,140,10.0,-999.0,78,-99.99,,,-99.99,,2013-05-27 04:02:00,
2013-05-26 23:12:00,72.0,66.0,29.83,SSE,150,12.0,-999.0,83,-99.99,,,-99.99,,2013-05-27 04:12:00,
2013-05-26 23:23:00,72.0,66.0,29.82,SSE,150,13.0,-999.0,83,-99.99,,,-99.99,,2013-05-27 04:23:00,
2013-05-26 23:33:00,72.0,66.0,29.82,SSE,160,12.0,17.0,83,-99.99,,,-99.99,,2013-05-27 04:33:00,
2013-05-26 23:42:00,72.0,66.0,29.82,SSE,160,14.0,17.0,83,-99.99,,,-99.99,,2013-05-27 04:42:00,
2013-05-26 23:52:00,72.0,66.0,29.81,SSE,160,13.0,18.0,83,-99.99,,,-99.99,,2013-05-27 04:52:00,